Time,TemperatureF,DewpointF,PressureIn,WindDirection,WindDirectionDegrees,WindSpeedMPH,WindSpeedGustMPH,Humidity,HourlyPrecipIn,Conditions,Clouds,dailyrainin,SoftwareType,DateUTC
2013-10-12 00:08:00,62.6,52.0,30.01,North,354,0.0,0.0,68,0.00,,,0.00,weatherlink.com 1.10,2013-10-12 04:08:00,
2013-10-12 00:23:00,61.9,52.0,30.01,North,354,0.0,0.0,69,0.00,,,0.00,weatherlink.com 1.10,2013-10-12 04:23:00,
2013-10-12 00:39:00,62.0,51.0,30.01,North,356,0.0,0.0,68,0.00,,,0.00,weatherlink.com 1.10,2013-10-12 04:39:00,
2013-10-12 00:54:00,62.4,52.0,30.01,North,355,0.0,0.0,68,0.00,,,0.00,weatherlink.com 1.10,2013-10-12 04:54:00,
2013-10-12 01:09:00,62.2,52.0,30.01,North,355,0.0,0.0,70,0.00,,,0.00,weatherlink.com 1.10,2013-10-12 05:09:00,
2013-10-12 01:24:00,61.3,52.0,30.02,North,354,0.0,0.0,72,0.00,,,0.00,weatherlink.com 1.10,2013-10-12 05:24:00,
2013-10-12 01:39:00,60.5,53.0,30.02,North,356,0.0,0.0,77,0.00,,,0.00,weatherlink.com 1.10,2013-10-12 05:39:00,
2013-10-12 01:54:00,60.6,54.0,30.02,NE,47,0.0,0.0,78,0.00,,,0.00,weatherlink.com 1.10,2013-10-12 05:54:00,
2013-10-12 02:09:00,61.2,54.0,30.02,NE,47,0.0,0.0,77,0.00,,,0.00,weatherlink.com 1.10,2013-10-12 06:09:00,
2013-10-12 02:24:00,61.0,54.0,30.02,NE,47,0.0,0.0,78,0.00,,,0.00,weatherlink.com 1.10,2013-10-12 06:24:00,
2013-10-12 02:39:00,60.0,54.0,30.02,NE,47,0.0,0.0,81,0.00,,,0.00,weatherlink.com 1.10,2013-10-12 06:39:00,
2013-10-12 02:54:00,58.5,54.0,30.02,NE,47,0.0,0.0,85,0.00,,,0.00,weatherlink.com 1.10,2013-10-12 06:54:00,
2013-10-12 03:09:00,58.3,54.0,30.03,NE,47,0.0,0.0,85,0.00,,,0.00,weatherlink.com 1.10,2013-10-12 07:09:00,
2013-10-12 03:24:00,59.1,54.0,30.03,NE,47,0.0,0.0,84,0.00,,,0.00,weatherlink.com 1.10,2013-10-12 07:24:00,
2013-10-12 03:39:00,59.1,54.0,30.03,NE,47,0.0,0.0,84,0.00,,,0.00,weatherlink.com 1.10,2013-10-12 07:39:00,
2013-10-12 03:54:00,58.2,54.0,30.03,NE,47,0.0,0.0,87,0.00,,,0.00,weatherlink.com 1.10,2013-10-12 07:54:00,
2013-10-12 04:09:00,58.2,54.0,30.02,NE,47,0.0,0.0,87,0.00,,,0.00,weatherlink.com 1.10,2013-10-12 08:09:00,
2013-10-12 04:24:00,58.5,55.0,30.02,NE,47,0.0,0.0,87,0.00,,,0.00,weatherlink.com 1.10,2013-10-12 08:24:00,
2013-10-12 04:39:00,58.3,55.0,30.03,NE,47,0.0,0.0,88,0.00,,,0.00,weatherlink.com 1.10,2013-10-12 08:39:00,
2013-10-12 04:54:00,57.8,55.0,30.03,NE,47,0.0,0.0,89,0.00,,,0.00,weatherlink.com 1.10,2013-10-12 08:54:00,
2013-10-12 05:09:00,57.0,55.0,30.03,NE,46,0.0,0.0,91,0.00,,,0.00,weatherlink.com 1.10,2013-10-12 09:09:00,
2013-10-12 05:24:00,57.0,55.0,30.03,NE,46,0.0,0.0,92,0.00,,,0.00,weatherlink.com 1.10,2013-10-12 09:24:00,
2013-10-12 05:39:00,56.5,55.0,30.03,NE,46,0.0,0.0,93,0.00,,,0.00,weatherlink.com 1.10,2013-10-12 09:39:00,
2013-10-12 05:54:00,55.6,54.0,30.04,NE,46,0.0,0.0,93,0.00,,,0.00,weatherlink.com 1.10,2013-10-12 09:54:00,
2013-10-12 06:09:00,55.6,55.0,30.04,NE,46,0.0,0.0,96,0.00,,,0.00,weatherlink.com 1.10,2013-10-12 10:09:00,
2013-10-12 06:24:00,55.1,54.0,30.04,NE,46,0.0,0.0,95,0.00,,,0.00,weatherlink.com 1.10,2013-10-12 10:24:00,
2013-10-12 06:39:00,54.8,54.0,30.05,NE,45,0.0,0.0,96,0.00,,,0.00,weatherlink.com 1.10,2013-10-12 10:39:00,
2013-10-12 06:54:00,54.6,54.0,30.05,NE,46,0.0,0.0,96,0.00,,,0.00,weatherlink.com 1.10,2013-10-12 10:54:00,
2013-10-12 07:09:00,55.3,55.0,30.05,NE,46,0.0,0.0,97,0.00,,,0.00,weatherlink.com 1.10,2013-10-12 11:09:00,
2013-10-12 07:24:00,55.4,55.0,30.05,NE,46,0.0,0.0,97,0.00,,,0.00,weatherlink.com 1.10,2013-10-12 11:24:00,
2013-10-12 07:39:00,54.8,54.0,30.06,NNW,334,0.0,0.0,97,0.00,,,0.00,weatherlink.com 1.10,2013-10-12 11:39:00,
2013-10-12 07:54:00,54.6,54.0,30.05,NNW,336,0.0,0.0,97,0.00,,,0.00,weatherlink.com 1.10,2013-10-12 11:54:00,
2013-10-12 08:09:00,54.3,54.0,30.06,NNW,336,0.0,0.0,98,0.00,,,0.00,weatherlink.com 1.10,2013-10-12 12:09:00,
2013-10-12 08:24:00,55.0,55.0,30.06,WNW,298,0.0,0.0,98,0.00,,,0.00,weatherlink.com 1.10,2013-10-12 12:24:00,
2013-10-12 08:39:00,54.9,54.0,30.06,WNW,296,0.0,-999.0,98,-99.99,,,0.00,weatherlink.com 1.10,2013-10-12 12:39:00,
2013-10-12 08:54:00,54.7,54.0,30.07,West,273,0.0,0.0,98,0.00,,,0.00,weatherlink.com 1.10,2013-10-12 12:54:00,
2013-10-12 09:09:00,55.2,55.0,30.07,West,273,0.0,0.0,98,0.00,,,0.00,weatherlink.com 1.10,2013-10-12 13:09:00,
2013-10-12 09:25:00,56.3,56.0,30.07,SW,221,0.0,0.0,98,0.00,,,0.00,weatherlink.com 1.10,2013-10-12 13:25:00,
2013-10-12 09:40:00,57.6,57.0,30.07,SE,132,0.0,0.0,98,0.00,,,0.00,weatherlink.com 1.10,2013-10-12 13:40:00,
2013-10-12 09:55:00,59.3,59.0,30.07,SE,133,0.0,0.0,97,0.00,,,0.00,weatherlink.com 1.10,2013-10-12 13:55:00,
2013-10-12 10:10:00,61.1,60.0,30.06,SE,134,0.0,0.0,95,0.00,,,0.00,weatherlink.com 1.10,2013-10-12 14:10:00,
2013-10-12 10:25:00,62.6,60.0,30.06,SE,144,0.0,0.0,92,0.00,,,0.00,weatherlink.com 1.10,2013-10-12 14:25:00,
2013-10-12 10:40:00,64.8,62.0,30.06,SE,134,1.0,1.0,90,0.00,,,0.00,weatherlink.com 1.10,2013-10-12 14:40:00,
2013-10-12 10:55:00,65.4,62.0,30.06,WSW,255,2.0,3.0,87,0.00,,,0.00,weatherlink.com 1.10,2013-10-12 14:55:00,
2013-10-12 11:10:00,67.2,62.0,30.06,SSE,148,0.0,2.0,83,0.00,,,0.00,weatherlink.com 1.10,2013-10-12 15:10:00,
2013-10-12 11:25:00,69.6,63.0,30.05,SE,131,2.0,2.0,80,0.00,,,0.00,weatherlink.com 1.10,2013-10-12 15:25:00,
2013-10-12 11:40:00,71.1,64.0,30.06,SE,131,2.0,2.0,77,0.00,,,0.00,weatherlink.com 1.10,2013-10-12 15:40:00,
2013-10-12 11:55:00,71.8,64.0,30.06,SSE,165,2.0,4.0,75,0.00,,,0.00,weatherlink.com 1.10,2013-10-12 15:55:00,
2013-10-12 12:10:00,71.7,63.0,30.06,West,269,3.0,6.0,74,0.00,,,0.00,weatherlink.com 1.10,2013-10-12 16:10:00,
2013-10-12 12:25:00,73.2,64.0,30.06,SE,128,2.0,4.0,73,0.00,,,0.00,weatherlink.com 1.10,2013-10-12 16:25:00,
2013-10-12 12:40:00,75.2,64.0,30.05,WSW,249,3.0,3.0,69,0.00,,,0.00,weatherlink.com 1.10,2013-10-12 16:40:00,
2013-10-12 12:55:00,75.6,64.0,30.06,SW,229,1.0,4.0,68,0.00,,,0.00,weatherlink.com 1.10,2013-10-12 16:55:00,
2013-10-12 13:10:00,74.6,63.0,30.05,SW,218,3.0,4.0,68,0.00,,,0.00,weatherlink.com 1.10,2013-10-12 17:10:00,
2013-10-12 13:25:00,74.6,64.0,30.05,North,8,1.0,5.0,70,0.00,,,0.00,weatherlink.com 1.10,2013-10-12 17:25:00,
2013-10-12 13:40:00,77.2,64.0,30.04,SW,224,0.0,2.0,63,0.00,,,0.00,weatherlink.com 1.10,2013-10-12 17:40:00,
2013-10-12 13:55:00,77.0,63.0,30.04,SW,217,0.0,4.0,63,0.00,,,0.00,weatherlink.com 1.10,2013-10-12 17:55:00,
2013-10-12 14:10:00,76.4,62.0,30.03,SW,219,1.0,6.0,62,0.00,,,0.00,weatherlink.com 1.10,2013-10-12 18:10:00,
2013-10-12 14:25:00,77.6,62.0,30.03,SW,222,3.0,6.0,58,0.00,,,0.00,weatherlink.com 1.10,2013-10-12 18:25:00,
2013-10-12 14:40:00,77.2,62.0,30.03,North,358,1.0,4.0,59,0.00,,,0.00,weatherlink.com 1.10,2013-10-12 18:40:00,
2013-10-12 14:55:00,78.5,63.0,30.03,West,266,1.0,4.0,59,0.00,,,0.00,weatherlink.com 1.10,2013-10-12 18:55:00,
2013-10-12 15:10:00,78.0,60.0,30.03,East,81,1.0,3.0,55,0.00,,,0.00,weatherlink.com 1.10,2013-10-12 19:10:00,
2013-10-12 15:25:00,78.7,60.0,30.03,NE,45,0.0,3.0,53,0.00,,,0.00,weatherlink.com 1.10,2013-10-12 19:25:00,
2013-10-12 15:40:00,79.1,58.0,30.03,NW,308,2.0,3.0,48,0.00,,,0.00,weatherlink.com 1.10,2013-10-12 19:40:00,
2013-10-12 15:55:00,79.8,58.0,30.03,WSW,253,0.0,2.0,48,0.00,,,0.00,weatherlink.com 1.10,2013-10-12 19:55:00,
2013-10-12 16:10:00,78.9,60.0,30.02,SW,226,2.0,5.0,53,0.00,,,0.00,weatherlink.com 1.10,2013-10-12 20:10:00,
2013-10-12 16:25:00,79.0,59.0,30.02,WSW,248,1.0,3.0,51,0.00,,,0.00,weatherlink.com 1.10,2013-10-12 20:25:00,
2013-10-12 16:40:00,78.4,60.0,30.03,South,170,1.0,4.0,53,0.00,,,0.00,weatherlink.com 1.10,2013-10-12 20:40:00,
2013-10-12 16:56:00,79.0,60.0,30.03,WSW,249,0.0,2.0,52,0.00,,,0.00,weatherlink.com 1.10,2013-10-12 20:56:00,
2013-10-12 17:11:00,78.8,60.0,30.03,NNW,332,0.0,2.0,53,0.00,,,0.00,weatherlink.com 1.10,2013-10-12 21:11:00,
2013-10-12 17:26:00,79.1,61.0,30.02,SE,131,0.0,1.0,54,0.00,,,0.00,weatherlink.com 1.10,2013-10-12 21:26:00,
2013-10-12 17:41:00,79.5,61.0,30.02,SE,132,0.0,1.0,53,0.00,,,0.00,weatherlink.com 1.10,2013-10-12 21:41:00,
2013-10-12 17:56:00,77.9,60.0,30.02,SE,132,0.0,0.0,55,0.00,,,0.00,weatherlink.com 1.10,2013-10-12 21:56:00,
2013-10-12 18:11:00,76.4,60.0,30.03,SE,132,0.0,0.0,58,0.00,,,0.00,weatherlink.com 1.10,2013-10-12 22:11:00,
2013-10-12 18:26:00,74.5,60.0,30.02,SE,132,0.0,0.0,60,0.00,,,0.00,weatherlink.com 1.10,2013-10-12 22:26:00,
2013-10-12 18:41:00,73.2,60.0,30.02,SE,132,0.0,0.0,63,0.00,,,0.00,weatherlink.com 1.10,2013-10-12 22:41:00,
2013-10-12 18:56:00,72.2,59.0,30.03,SE,132,0.0,0.0,64,0.00,,,0.00,weatherlink.com 1.10,2013-10-12 22:56:00,
2013-10-12 19:11:00,71.5,59.0,30.03,SE,132,0.0,0.0,65,0.00,,,0.00,weatherlink.com 1.10,2013-10-12 23:11:00,
2013-10-12 19:26:00,70.7,60.0,30.03,SE,133,0.0,0.0,68,0.00,,,0.00,weatherlink.com 1.10,2013-10-12 23:26:00,
2013-10-12 19:41:00,70.2,61.0,30.04,SE,132,0.0,0.0,73,0.00,,,0.00,weatherlink.com 1.10,2013-10-12 23:41:00,
2013-10-12 19:56:00,69.4,61.0,30.04,SE,133,0.0,0.0,75,0.00,,,0.00,weatherlink.com 1.10,2013-10-12 23:56:00,
2013-10-12 20:11:00,68.6,61.0,30.04,SE,133,0.0,0.0,77,0.00,,,0.00,weatherlink.com 1.10,2013-10-13 00:11:00,
2013-10-12 20:26:00,67.9,61.0,30.05,SE,132,0.0,0.0,79,0.00,,,0.00,weatherlink.com 1.10,2013-10-13 00:26:00,
2013-10-12 20:41:00,67.6,62.0,30.05,SE,133,0.0,0.0,81,0.00,,,0.00,weatherlink.com 1.10,2013-10-13 00:41:00,
2013-10-12 20:56:00,67.1,61.0,30.05,SE,132,0.0,0.0,82,0.00,,,0.00,weatherlink.com 1.10,2013-10-13 00:56:00,
2013-10-12 21:11:00,66.5,62.0,30.06,SE,130,0.0,1.0,84,0.00,,,0.00,weatherlink.com 1.10,2013-10-13 01:11:00,
2013-10-12 21:26:00,65.8,61.0,30.07,ESE,113,0.0,1.0,85,0.00,,,0.00,weatherlink.com 1.10,2013-10-13 01:26:00,
2013-10-12 21:41:00,65.2,61.0,30.07,ESE,113,0.0,1.0,87,0.00,,,0.00,weatherlink.com 1.10,2013-10-13 01:41:00,
2013-10-12 21:56:00,64.6,61.0,30.08,ESE,113,0.0,1.0,88,0.00,,,0.00,weatherlink.com 1.10,2013-10-13 01:56:00,
2013-10-12 22:11:00,64.1,61.0,30.08,ESE,113,0.0,0.0,89,0.00,,,0.00,weatherlink.com 1.10,2013-10-13 02:11:00,
2013-10-12 22:26:00,63.7,61.0,30.09,ESE,113,0.0,0.0,90,0.00,,,0.00,weatherlink.com 1.10,2013-10-13 02:26:00,
2013-10-12 22:41:00,63.1,61.0,30.09,ESE,113,0.0,0.0,91,0.00,,,0.00,weatherlink.com 1.10,2013-10-13 02:41:00,
2013-10-12 22:56:00,63.0,61.0,30.09,ESE,115,1.0,1.0,92,0.00,,,0.00,weatherlink.com 1.10,2013-10-13 02:56:00,
2013-10-12 23:11:00,62.8,61.0,30.09,ESE,116,0.0,0.0,92,0.00,,,0.00,weatherlink.com 1.10,2013-10-13 03:11:00,
2013-10-12 23:26:00,62.4,60.0,30.09,ESE,115,0.0,0.0,93,0.00,,,0.00,weatherlink.com 1.10,2013-10-13 03:26:00,
2013-10-12 23:41:00,62.4,60.0,30.10,SE,126,0.0,0.0,93,0.00,,,0.00,weatherlink.com 1.10,2013-10-13 03:41:00,
2013-10-12 23:56:00,62.1,60.0,30.10,ESE,123,0.0,0.0,93,0.00,,,0.00,weatherlink.com 1.10,2013-10-13 03:56:00,